Tracking 31027 objects as of 19-Jul-2025
HD Live streaming from Space Station
objects crossing your sky now

COSMOS 374

Track COSMOS 374 now!
10-day predictions
COSMOS 374 is classified as:


NORAD ID: 4594
Int'l Code: 1970-089A
Perigee: 547.8 km
Apogee: 2,018.7 km
Inclination: 62.9 °
Period: 111.1 minutes
Semi major axis: 7654 km
RCS: 0.5589 m2 (medium)
Launch date: October 23, 1970
Source: Commonwealth of Independent States (former USSR) (CIS)
Launch site: TYURATAM MISSILE AND SPACE COMPLEX (TTMTR)
Your satellite tracking list
ABS 3
Track 1 satellite(s)




NASA's NSSDC Master Catalog

Two Line Element Set (TLE):
1 04594U 70089A   25199.43803667  .00000221  00000-0  12115-3 0  9997
2 04594  62.9337 216.8976 0960886  30.0943 335.1854 12.96427782625638
Source of the keplerian elements: AFSPC